^^
Saratoga-Weather Station Historical Data
Daily Summary for July 19, 2021 Units:  English    Metric   Both
Daily Weekly Monthly Yearly Custom
  High: Low: Average:
Temperature: 61.5 °F 60.4 °F 61.2 °F
Dew Point: 58.8 °F 58.5 °F 58.6 °F
Humidity: 93% 91% 92%
Wind Speed: 4.9mph 0mph 1.9mph
Wind Gust: 6mph - -
Wind- - WNW
Pressure: 30 in 30 in -
Precipitation: 0 in    
Historical Graphs
 
 
Tabular Data for July 19, 2021
Time Temperature Dew Point Pressure Wind Wind Speed Wind Gust Humidity Rainfall Rate (Hourly) solar
00:02 61.5 °F 58.8 °F 30 in NW 2 mph 4 mph 91% 0 in 0 W/m2
00:07 61.5 °F 58.8 °F 30 in West 4 mph 4 mph 91% 0 in 0 W/m2
00:12 61.5 °F 58.8 °F 30 in West 0.9 mph 3 mph 91% 0 in 0 W/m2
00:17 61.3 °F 58.6 °F 30 in West 2 mph 4 mph 91% 0 in 0 W/m2
00:22 61.3 °F 58.6 °F 30 in NW 2.9 mph 5 mph 91% 0 in 0 W/m2
00:27 61.3 °F 58.6 °F 30 in West 2.9 mph 4 mph 91% 0 in 0 W/m2
00:32 61.3 °F 58.6 °F 30 in WNW 2 mph 6 mph 91% 0 in 0 W/m2
00:38 61.3 °F 58.6 °F 30 in NNW 2 mph 3 mph 91% 0 in 0 W/m2
00:43 61.3 °F 58.6 °F 30 in SW 2 mph 6 mph 91% 0 in 0 W/m2
00:48 61.3 °F 58.6 °F 30 in WNW 0.9 mph 3 mph 91% 0 in 0 W/m2
00:53 61.3 °F 58.6 °F 30 in WNW 2 mph 6 mph 91% 0 in 0 W/m2
00:58 61.3 °F 58.6 °F 30 in WNW 2 mph 6 mph 91% 0 in 0 W/m2
01:03 61.3 °F 58.6 °F 30 in NW 2 mph 4 mph 91% 0 in 0 W/m2
01:08 61.3 °F 58.6 °F 30 in WNW 0.9 mph 3 mph 91% 0 in 0 W/m2
01:13 61.3 °F 58.6 °F 30 in NW 2.9 mph 3 mph 91% 0 in 0 W/m2
01:18 61.3 °F 58.6 °F 30 in NW 0.9 mph 3 mph 91% 0 in 0 W/m2
01:23 61.3 °F 58.6 °F 30 in NNW 2 mph 3 mph 91% 0 in 0 W/m2
01:28 61.3 °F 58.6 °F 30 in NW 0.9 mph 3 mph 91% 0 in 0 W/m2
01:33 61.3 °F 58.6 °F 30 in NW 2.9 mph 5 mph 91% 0 in 0 W/m2
01:38 61.3 °F 58.6 °F 30 in WNW 4.9 mph 5 mph 91% 0 in 0 W/m2
01:43 61.2 °F 58.8 °F 30 in WNW 2.9 mph 4 mph 92% 0 in 0 W/m2
01:48 61.2 °F 58.8 °F 30 in Calm   2 mph 92% 0 in 0 W/m2
01:53 61 °F 58.6 °F 30 in WSW 0.9 mph 3 mph 92% 0 in 0 W/m2
01:58 60.8 °F 58.5 °F 30 in SSW 0.9 mph 2 mph 92% 0 in 0 W/m2
02:03 60.6 °F 58.6 °F 30 in Calm   1 mph 93% 0 in 0 W/m2
02:08 60.6 °F 58.6 °F 30 in West 2.9 mph 4 mph 93% 0 in 0 W/m2
02:13 60.6 °F 58.6 °F 30 in Calm   1 mph 93% 0 in 0 W/m2
02:18 60.6 °F 58.6 °F 30 in NW 4 mph 4 mph 93% 0 in 0 W/m2
02:23 60.4 °F 58.5 °F 30 in Calm   3 mph 93% 0 in 0 W/m2
02:28 60.4 °F 58.5 °F 30 in WNW 2 mph 4 mph 93% 0 in 0 W/m2
02:33 60.4 °F 58.5 °F 30 in NW 0.9 mph 2 mph 93% 0 in 0 W/m2
Juneau County Weather
Compliments of Weather Underground - 2 mb